sat.trackr.live / text

‹ back to catalog

STARLINK-3609

NORAD 51808 · 2022-017AS

PAYLOAD ACTIVE UNKNOWN

§ Identity

Operator
Country
US
Launch date
2022-02-25
Launch site
AFWTR
Launch vehicle
Mass (kg)
RCS (m²)

Purposes: comms

External: N2YO · Heavens-Above · Gunter

§ Orbital elements

Epoch: 2026-09-20T01:20:13.358688Z

Period
93.80 min
Inclination
53.1589°
Eccentricity
0.0000787
Mean motion
15.35198760 rev/d
Perigee alt
459.8 km
Apogee alt
460.9 km
Semi-major
6,838.5 km
B*
-7.2695e-4
RAAN
173.4646°
Arg perigee
125.0501°
Mean anomaly
235.0575°
Rev number
25,348

§ Raw data

STARLINK-36091 51808U 22017AS  26263.05571017 -.00025489  00000+0 -72695-3 0  99902 51808  53.1589 173.4646 0000787 125.0501 235.0575 15.35198760253486

JSON: /api/v1/satellites/51808 · /tle

For live sub-satellite position, see the globe view (requires WebGL).

§ Visibility from observer

Set your observer location to see the next 7 days of passes ≥ 10°. The values pass through the URL so the page stays shareable.

No JS? Fill the form by hand. The geolocation button needs JavaScript.